Showing default

IRIDIUM 29, 24944

Orbit data source: Space-Track

IRIDIUM 29, 24944 is a payload satellite owned by Iridium (US) in LEO that was launched on Sun, 14 Sep 1997 UTC via a PROTON-K/17S40 launch vehicle from the Tyuratam Missile And Space Complex (TTMTR). Payload-class satellites include a variety of spacecraft equipped with specific instruments for various scientific and technological missions. These include communications satellites like Starlink; space stations such as the ISS; scientific satellites like the Hubble; Earth observation satellites from companies like Planet Labs, Umbra, and HawkEye 360; GPS; miniature CubeSats for education and research; and military/defense satellites.

Loading next visibility...
Identifier
24944, 1997-051A
Orbit
LEO
Country
Flag of USUS
Related business
Manufacturer
MOTO/LMMS
Mission
Non-operational Commercial Communications
Bus & Motor
LM700, Unknown motor
Mass
662 kg wet, 556 kg dry
Launch date (UTC)
1997-09-14 (28 years ago)
Launch vehicle
PROTON-K/17S40
Launch site
Tyuratam Missile And Space Complex (TTMTR)
Object type
Payload
Rocket body
Debris
Shape & HBR
Box + 2 Pan, 4.0 m
Radar Cross Section
5.666 m², Large (>1 m²)

Expand to show TLE details & history
Last TLE update: 21 hours ago

TLE from 21 hours ago
0 IRIDIUM 29
1 24944U 97051A   25347.78019625  .00000573  00000-0  18822-3 0  9993
2 24944  86.3954  68.5068 0002283  92.4164 267.7295 14.36663928479055
Epoch: 2025-12-13T18:43Z
TLE epoch observation values (Epoch: 2025-12-13T18:43:28.955Z)
Latitude
-0.00001°
Longitude
64.9336°
Altitude
772.662 km
Speed
7.468 km/s
True Right ascension
04h 34m 01s
True Declination
0° 00' 00"
Sunlit
Object was in full shadow at epoch
Visualization orbit readout
Latitude
Unknown
Longitude
Unknown
Altitude
Unknown
Speed
Unknown
Apparent Right ascension
Unknown
Apparent Declination
Unknown
Sunlit
N/A
Visualization observer readout
Local Sidereal Time
14:43:49
Azimuth
Unknown
Elevation
Unknown
Doppler factor
Unknown
Orbital elements
Apogee altitude
768.134 km
Perigee altitude
764.872 km
Semi-major axis
7,144.64 km
Eccentricity
0.00023
Inclination
86.3954°
RAAN
68.5068°
Arg. of periapsis
92.4164°
True anomaly
267.70336°
Mean anomaly
267.7295°
Eccentric anomaly
267.71643°
Mean motion
3.59395 °/min
Orbital period
100.17 mins
BSTAR
0.00018822
Loading maneuver chart data...
Computing Atmospheric mass density...

Documentation

Showing up to 5 results
|